Location: Natural Bridges National Monument
(37.6093°N, 109.9767°W)
Time: 11:01:21
(UTC-06:00)

Amateur Radio Satellites - All Passes

Search period start: 01 July 2016 10:31
Search period end: 02 July 2016 10:31
Location: Natural Bridges National Monument, 37.6093°N, 109.9767°W

Satellite Date Start Highest point End Downlink Frequencies (MHz)
Time Altitude Azimuth
CUBEBUG 2 01 Jul 10:33:21 10:37:52 51° 286° (WNW) 10:42:27 437.445
PCSat 01 Jul 10:39:11 10:43:53 29° 53° (NE) 10:48:32 145.827
ZACube-1 01 Jul 10:45:54 10:50:30 82° 283° (WNW) 10:55:05 437.345
ANTELSAT 01 Jul 10:47:16 10:51:33 70° 75° (ENE) 10:55:58 437.575/2403.000
DANDE 01 Jul 10:48:14 10:50:46 12° 297° (WNW) 10:53:14 436.750
COMPASS 1 01 Jul 10:48:51 10:52:01 21° 291° (WNW) 10:55:09 437.405
Oscar 11 01 Jul 10:49:52 10:54:13 69° 284° (WNW) 10:58:31 145.826/435.025
Cosmos 2491 01 Jul 10:57:16 11:04:01 24° 68° (ENE) 11:10:43 435.465 / 435.565
FUNcube-1 01 Jul 11:01:49 11:06:18 58° 285° (WNW) 11:10:47 145.935
AUBIESAT-1 01 Jul 11:05:05 11:09:02 54° 290° (WNW) 11:13:16 437.475
BEESAT 3 01 Jul 11:11:21 11:15:12 47° 56° (ENE) 11:19:00 437.485
UWE-3 01 Jul 11:14:39 11:18:32 27° 290° (WNW) 11:22:28 435.000/436.395/437.385
NANOSAT C BR1 01 Jul 11:17:04 11:20:15 22° 69° (ENE) 11:23:28 145.865
QB50P1 01 Jul 11:21:37 11:25:05 26° 70° (ENE) 11:28:34 145.935-145.965
O/OREOS (USA 219) 01 Jul 11:22:01 11:22:40 10° 54° (NE) 11:23:21 437.305
POPSAT HIP 1 01 Jul 11:25:03 11:28:36 27° 70° (ENE) 11:32:10 437.405
DELFI C3 01 Jul 11:31:35 11:35:25 46° 286° (WNW) 11:39:11 145.870
HUMSAT D 01 Jul 11:31:40 11:36:00 72° 102° (ESE) 11:40:16 437.325/437.525
DUCHIFAT 1 01 Jul 11:35:28 11:39:10 32° 71° (ENE) 11:42:54 145.980
QB50P2 01 Jul 11:37:45 11:41:41 41° 73° (ENE) 11:45:40 145.880/145.840
TIGRISAT 01 Jul 11:38:31 11:42:20 31° 263° (W) 11:46:16 435.000
POLYITAN 1 01 Jul 11:40:21 11:44:19 42° 73° (ENE) 11:48:18 437.675
UNISAT 6 01 Jul 11:45:04 11:48:38 25° 265° (W) 11:52:17 437.425
M-CUBED/EXP-1 PRIME 01 Jul 11:48:32 11:50:56 15° 297° (WNW) 11:53:25 437.505
JAS-2 01 Jul 11:50:59 11:56:34 24° 64° (ENE) 12:01:47 435.910
BEESAT 2 01 Jul 11:55:27 11:59:27 81° 60° (ENE) 12:03:26 435.950
PHONESAT 2.4 01 Jul 12:00:46 12:02:44 16° 213° (SSW) 12:04:42 2401.200-2431.200
AISAT 01 Jul 12:05:32 12:08:20 17° 94° (E) 12:11:09 437.250
RS-15 01 Jul 12:13:31 12:24:53 88° 116° (ESE) 12:36:58 29.354- 29.394
ESTCUBE 1 01 Jul 12:13:36 12:17:41 33° 97° (E) 12:21:43 437.505/2401.250
DX 1 01 Jul 12:14:30 12:16:57 15° 93° (E) 12:19:24 434.975-435.025
BUGSAT 1 01 Jul 12:17:57 12:21:46 43° 73° (ENE) 12:25:35 437.445
PCSat 01 Jul 12:22:21 12:27:19 38° 250° (WSW) 12:32:15 145.827
YUBILEINY 01 Jul 12:34:21 12:42:27 46° 88° (E) 12:50:37 435.215
CUBEBUG 1 01 Jul 12:42:50 12:47:00 47° 99° (E) 12:51:11 437.445
BEESAT 3 01 Jul 12:50:43 12:52:26 13° 251° (WSW) 12:54:08 437.485
NANOSAT C BR1 01 Jul 12:52:16 12:55:50 27° 264° (W) 12:59:26 145.865
Cosmos 2491 01 Jul 12:52:54 13:01:31 68° 268° (W) 13:10:07 435.465 / 435.565
50 SAT 01 Jul 12:55:11 12:58:52 70° 101° (ESE) 13:02:30 437.505
QB50P1 01 Jul 12:57:27 13:00:47 23° 265° (W) 13:04:09 145.935-145.965
O/OREOS (USA 219) 01 Jul 12:58:09 13:02:38 78° 251° (WSW) 13:07:07 437.305
VELOX 1 01 Jul 12:59:21 13:03:44 66° 101° (E) 13:08:06 145.980
POPSAT HIP 1 01 Jul 13:01:08 13:04:21 21° 265° (W) 13:07:35 437.405
AIST 2 01 Jul 13:04:43 13:08:08 24° 51° (NE) 13:11:31 435.215
DUCHIFAT 1 01 Jul 13:12:05 13:14:56 18° 266° (W) 13:17:47 145.980
QB50P2 01 Jul 13:15:26 13:17:40 14° 267° (W) 13:19:55 145.880/145.840
POLYITAN 1 01 Jul 13:18:11 13:20:18 14° 268° (W) 13:22:27 437.675
SPROUT 01 Jul 13:18:14 13:22:22 46° 99° (E) 13:26:30 437.525
Oscar 19 01 Jul 13:18:58 13:23:35 35° 69° (ENE) 13:28:12 437.125/150
UKube-1 01 Jul 13:22:56 13:27:14 74° 101° (ESE) 13:31:32 .
ISS 01 Jul 13:33:08 13:35:11 15° 24° (NNE) 13:37:15 145.825
JAS-2 01 Jul 13:33:31 13:41:07 66° 258° (WSW) 13:48:02 435.910
Cosmos 2504 01 Jul 13:35:40 13:42:48 35° 85° (E) 13:50:19 435.465 / 435.565
AISAT 01 Jul 13:40:51 13:44:57 39° 288° (WNW) 13:49:02 437.250
DX 1 01 Jul 13:49:13 13:53:19 42° 288° (WNW) 13:57:25 434.975-435.025
ESTCUBE 1 01 Jul 13:50:54 13:54:15 21° 292° (WNW) 13:57:34 437.505/2401.250
ITAMSAT 1 01 Jul 13:52:37 13:53:46 11° 59° (ENE) 13:54:55 435.822/435.867
BUGSAT 1 01 Jul 13:55:45 13:57:21 12° 268° (W) 13:58:57 437.445
Gurwin Techsat 1B 01 Jul 14:01:49 14:06:42 39° 70° (ENE) 14:11:36 435.225
CUBEBUG 1 01 Jul 14:20:34 14:22:53 14° 294° (WNW) 14:25:11 437.445
TISAT 1 01 Jul 14:26:21 14:30:34 68° 101° (ESE) 14:34:46 437.305
RS-15 01 Jul 14:29:12 14:39:05 31° 324° (NW) 14:49:25 29.354- 29.394
YUBILEINY 01 Jul 14:31:30 14:39:19 36° 287° (WNW) 14:47:15 435.215
VELOX 1 01 Jul 14:38:30 14:39:37 11° 297° (WNW) 14:40:44 145.980
AIST 2 01 Jul 14:42:58 14:46:36 29° 247° (WSW) 14:50:12 435.215
SWISSCUBE 01 Jul 14:51:48 14:55:42 25° 96° (E) 14:59:35 437.505
SPROUT 01 Jul 14:55:35 14:57:55 14° 294° (WNW) 15:00:13 437.525
Oscar 19 01 Jul 14:58:43 15:02:55 25° 265° (W) 15:07:07 437.125/150
SO-50 01 Jul 15:07:47 15:12:21 41° 114° (ESE) 15:16:56 436.795
ISS 01 Jul 15:08:43 15:12:00 82° 221° (SW) 15:15:16 145.825
BEESAT 01 Jul 15:16:13 15:20:44 40° 99° (E) 15:25:12 436.000
ITUPSAT 1 01 Jul 15:19:28 15:24:03 42° 99° (E) 15:28:34 437.325
AO-7 01 Jul 15:24:33 15:32:25 48° 65° (ENE) 15:40:20 29.400- 29.500
ITAMSAT 1 01 Jul 15:27:12 15:32:25 89° 79° (ENE) 15:37:41 435.822/435.867
Cosmos 2504 01 Jul 15:28:03 15:35:50 47° 284° (WNW) 15:44:10 435.465 / 435.565
Gurwin Techsat 1B 01 Jul 15:42:31 15:46:43 24° 265° (W) 15:50:57 435.225
JUGNU 01 Jul 15:54:38 15:57:26 14° 178° (S) 16:00:15 437.505
AIST 1 01 Jul 16:16:42 16:18:43 13° 86° (E) 16:20:44
SWISSCUBE 01 Jul 16:29:15 16:33:28 31° 291° (WNW) 16:37:39 437.505
KKS-1 01 Jul 16:47:29 16:51:44 42° 99° (E) 16:55:58 437.445
SO-50 01 Jul 16:48:58 16:52:58 25° 311° (NW) 16:56:58 436.795
RS-15 01 Jul 16:50:12 16:57:25 17° 360° (N) 17:04:45 29.354- 29.394
BEESAT 01 Jul 16:54:45 16:58:12 20° 294° (WNW) 17:01:38 436.000
ITUPSAT 1 01 Jul 16:58:11 17:01:32 19° 295° (WNW) 17:04:52 437.325
MOZHAYETS 4 01 Jul 17:02:22 17:06:58 60° 101° (E) 17:11:31
HORYU 2 01 Jul 17:08:40 17:12:59 54° 73° (ENE) 17:17:20 437.375
STARS 01 Jul 17:10:21 17:14:27 37° 98° (E) 17:18:33 437.465
NOAA 15 01 Jul 17:12:38 17:15:16 14° 62° (ENE) 17:17:55 137.62
SRMSAT 01 Jul 17:16:15 17:18:33 12° 173° (S) 17:20:50 437.500
BRITE-PL 01 Jul 17:17:04 17:18:54 12° 66° (ENE) 17:20:41 437.365/2234.400
AO-7 01 Jul 17:17:49 17:25:16 36° 262° (W) 17:32:47 29.400- 29.500
JUGNU 01 Jul 17:43:41 17:45:35 12° 189° (S) 17:47:30 437.505
AIST 1 01 Jul 17:51:46 17:55:52 43° 281° (W) 17:59:58
Cubesat XI-IV 01 Jul 18:00:07 18:04:35 28° 67° (ENE) 18:09:06 437.490
Cosmos 2499 01 Jul 18:02:37 18:09:04 25° 81° (E) 18:15:44 435.465 / 435.565
LilacSat-2 01 Jul 18:08:43 18:11:43 23° 70° (ENE) 18:14:45 437.200
NOAA 18 01 Jul 18:21:55 18:27:10 51° 71° (ENE) 18:32:29 137.9125
KKS-1 01 Jul 18:25:08 18:27:57 17° 294° (WNW) 18:30:44 437.445
GONETS M04 01 Jul 18:32:15 18:40:44 60° 91° (E) 18:49:13
CUTE-I 01 Jul 18:32:27 18:37:39 57° 73° (ENE) 18:42:55 437.470
CUBESAT XI-V 01 Jul 18:39:21 18:43:58 76° 102° (ESE) 18:48:33 437.345
MOZHAYETS 4 01 Jul 18:41:29 18:43:35 13° 296° (WNW) 18:45:40
STARS 01 Jul 18:47:30 18:50:31 18° 293° (WNW) 18:53:32 437.465
HORYU 2 01 Jul 18:48:05 18:49:50 12° 268° (W) 18:51:36 437.375
CUSAT 1 01 Jul 18:48:29 18:51:41 62° 79° (E) 18:54:21 437.405
NOAA 15 01 Jul 18:49:08 18:54:24 72° 257° (WSW) 18:59:42 137.62
BRITE-PL 01 Jul 18:51:57 18:56:56 67° 259° (WSW) 19:01:34 437.365/2234.400
HO-68 01 Jul 18:55:09 18:59:30 17° 57° (ENE) 19:03:52 435.675
SRMSAT 01 Jul 19:04:11 19:06:51 13° 184° (S) 19:09:31 437.500
RS-15 01 Jul 19:05:30 19:15:54 30° 35° (NE) 19:26:16 29.354- 29.394
GOMX 1 01 Jul 19:07:53 19:12:28 79° 76° (ENE) 19:16:47 467.674
Cubesat XI-IV 01 Jul 19:39:41 19:44:30 34° 263° (W) 19:49:22 437.490
LilacSat-2 01 Jul 19:43:03 19:45:56 21° 265° (W) 19:48:51 437.200
DANDE 01 Jul 19:43:42 19:48:02 74° 264° (W) 19:51:18 436.750
STRAND 1 01 Jul 19:47:56 19:52:08 25° 95° (E) 19:56:17 437.568
DOVE 4 01 Jul 19:50:29 19:54:46 79° 257° (WSW) 19:58:57 437.250
Cosmos 2499 01 Jul 19:53:05 20:01:21 65° 280° (W) 20:10:08 435.465 / 435.565
COMPASS 1 01 Jul 20:02:49 20:05:23 16° 67° (ENE) 20:07:58 437.405
NOAA 18 01 Jul 20:04:18 20:08:05 19° 266° (W) 20:11:55 137.9125
CANX-2 01 Jul 20:13:16 20:17:24 49° 74° (ENE) 20:21:34 2200.000
CUTE-I 01 Jul 20:14:46 20:18:02 16° 268° (W) 20:21:19 437.470
CUBESAT XI-V 01 Jul 20:20:05 20:20:40 10° 298° (WNW) 20:21:16 437.345
CINEMA 3 01 Jul 20:20:06 20:24:09 58° 75° (ENE) 20:28:16 145.822/145.860
SEEDS 01 Jul 20:29:59 20:34:03 46° 74° (ENE) 20:38:08 437.485
GONETS M04 01 Jul 20:30:58 20:38:02 27° 290° (WNW) 20:45:09
CUTE 1.7 + AOD 2 01 Jul 20:32:24 20:36:40 72° 76° (ENE) 20:40:58 437.475
UWE-3 01 Jul 20:34:31 20:37:09 16° 66° (ENE) 20:39:51 435.000/436.395/437.385
AO-85 01 Jul 20:38:39 20:43:41 40° 114° (ESE) 20:48:37 145.980
HO-68 01 Jul 20:39:07 20:46:17 87° 254° (WSW) 20:53:31 435.675
M-CUBED/EXP-1 PRIME 01 Jul 20:58:41 21:01:38 32° 68° (ENE) 21:04:37 437.505
AAUSAT CUBESAT 2 01 Jul 20:58:41 21:02:47 55° 75° (ENE) 21:06:54 437.432
RS-15 01 Jul 21:17:53 21:30:20 87° 61° (ENE) 21:42:35 29.354- 29.394
STRAND 1 01 Jul 21:26:40 21:31:19 35° 291° (WNW) 21:35:57 437.568
CUBEBUG 2 01 Jul 21:29:24 21:33:34 77° 260° (W) 21:37:52 437.445
COMPASS 1 01 Jul 21:36:39 21:40:36 39° 262° (W) 21:44:35 437.405
ZACube-1 01 Jul 21:39:39 21:43:47 59° 75° (ENE) 21:48:03 437.345
PRISM 01 Jul 21:42:08 21:46:09 55° 101° (E) 21:50:07 437.425
Oscar 11 01 Jul 21:42:15 21:46:33 70° 76° (ENE) 21:50:54 145.826/435.025
AUBIESAT-1 01 Jul 21:50:14 21:53:26 51° 255° (WSW) 21:56:42 437.475
CANX-2 01 Jul 21:51:39 21:53:30 13° 269° (W) 21:55:22 2200.000
Cosmos 2499 01 Jul 21:53:51 21:56:25 11° 302° (WNW) 21:59:02 435.465 / 435.565
FUNcube-1 01 Jul 21:55:05 21:59:18 85° 74° (ENE) 22:03:38 145.935
SEEDS 01 Jul 22:08:00 22:09:58 13° 268° (W) 22:11:57 437.485
UWE-3 01 Jul 22:09:22 22:13:16 38° 262° (W) 22:17:18 435.000/436.395/437.385
DELFI C3 01 Jul 22:14:57 22:18:57 73° 77° (ENE) 22:23:00 145.870
AO-85 01 Jul 22:19:34 22:24:16 30° 309° (NW) 22:28:50 145.980
HUMSAT D 01 Jul 22:20:58 22:24:49 37° 72° (ENE) 22:28:43 437.325/437.525
HO-68 01 Jul 22:31:49 22:34:52 13° 271° (W) 22:37:55 435.675
AAUSAT CUBESAT 2 01 Jul 22:37:44 22:38:35 10° 269° (W) 22:39:26 437.432
ANTELSAT 01 Jul 22:41:38 22:44:51 18° 93° (E) 22:48:03 437.575/2403.000
YUBILEINY 01 Jul 22:47:41 22:53:47 20° 66° (ENE) 22:59:51 435.215
AISAT 01 Jul 23:02:18 23:04:11 13° 64° (ENE) 23:06:04 437.250
DX 1 01 Jul 23:09:53 23:11:01 11° 63° (ENE) 23:12:09 434.975-435.025
ESTCUBE 1 01 Jul 23:11:28 23:15:10 25° 69° (ENE) 23:18:53 437.505/2401.250
PRISM 01 Jul 23:19:50 23:20:57 11° 296° (WNW) 23:22:03 437.425
TIGRISAT 01 Jul 23:30:59 23:35:37 59° 101° (E) 23:40:15 435.000
50 SAT 01 Jul 23:31:33 23:34:31 23° 70° (ENE) 23:37:30 437.505
RS-15 01 Jul 23:32:30 23:41:14 23° 260° (W) 23:49:53 29.354- 29.394
Cosmos 2504 01 Jul 23:34:04 23:35:58 11° 58° (ENE) 23:37:51 435.465 / 435.565
CUBEBUG 1 01 Jul 23:37:02 23:40:51 31° 71° (ENE) 23:44:39 437.445
UNISAT 6 01 Jul 23:37:22 23:42:04 75° 102° (ESE) 23:46:46 437.425
SO-50 01 Jul 23:41:29 23:45:13 23° 48° (NE) 23:48:51 436.795
VELOX 1 01 Jul 23:54:38 23:58:50 45° 72° (ENE) 00:03:02 145.980
Cosmos 2491 01 Jul 23:56:26 00:03:37 30° 84° (E) 00:10:45 435.465 / 435.565
HUMSAT D 01 Jul 23:57:59 00:00:34 16° 267° (W) 00:03:11 437.325/437.525
SPROUT 02 Jul 00:10:11 00:13:46 27° 70° (ENE) 00:17:22 437.525
UKube-1 02 Jul 00:15:23 00:19:31 47° 73° (ENE) 00:23:40 .
ANTELSAT 02 Jul 00:17:17 00:21:41 41° 288° (WNW) 00:26:05 437.575/2403.000
AISAT 02 Jul 00:35:50 00:40:09 56° 259° (W) 00:44:29 437.250
NANOSAT C BR1 02 Jul 00:37:44 00:41:53 51° 100° (E) 00:46:02 145.865
DX 1 02 Jul 00:42:20 00:46:38 65° 259° (WSW) 00:50:57 434.975-435.025
YUBILEINY 02 Jul 00:42:43 00:51:36 81° 265° (W) 01:00:25 435.215
QB50P1 02 Jul 00:42:54 00:47:09 62° 101° (ESE) 00:51:22 145.935-145.965
POPSAT HIP 1 02 Jul 00:46:29 00:50:45 68° 102° (ESE) 00:55:00 437.405
ESTCUBE 1 02 Jul 00:47:59 00:51:51 28° 264° (W) 00:55:45 437.505/2401.250
JAS-2 02 Jul 00:48:04 00:51:00 15° 90° (E) 00:53:51 435.910
DUCHIFAT 1 02 Jul 00:56:21 01:00:37 81° 103° (ESE) 01:04:52 145.980
QB50P2 02 Jul 00:59:49 01:04:05 77° 284° (WNW) 01:08:22 145.880/145.840
BEESAT 3 02 Jul 01:02:20 01:03:59 12° 108° (ESE) 01:05:36 437.485
POLYITAN 1 02 Jul 01:02:26 01:06:44 75° 284° (WNW) 01:11:01 437.675
50 SAT 02 Jul 01:05:22 01:08:07 20° 265° (W) 01:10:53 437.505
TIGRISAT 02 Jul 01:09:28 01:11:46 14° 296° (WNW) 01:14:06 435.000
CUBEBUG 1 02 Jul 01:13:53 01:17:08 20° 265° (W) 01:20:24 437.445
TISAT 1 02 Jul 01:16:09 01:19:59 37° 72° (ENE) 01:23:50 437.305
UNISAT 6 02 Jul 01:16:51 01:18:07 11° 297° (WNW) 01:19:23 437.425
PCSat 02 Jul 01:18:46 01:23:41 36° 110° (ESE) 01:28:37 145.827
SO-50 02 Jul 01:21:32 01:25:49 38° 246° (WSW) 01:29:57 436.795
Cosmos 2504 02 Jul 01:22:36 01:31:22 62° 79° (E) 01:39:39 435.465 / 435.565
O/OREOS (USA 219) 02 Jul 01:31:24 01:33:54 15° 99° (E) 01:36:24 437.305
VELOX 1 02 Jul 01:33:06 01:35:30 14° 267° (W) 01:37:54 145.980
Oscar 19 02 Jul 01:33:51 01:36:23 14° 91° (E) 01:38:53 437.125/150
BUGSAT 1 02 Jul 01:36:22 01:40:30 79° 284° (WNW) 01:44:40 437.445
BEESAT 2 02 Jul 01:46:18 01:49:21 21° 111° (ESE) 01:52:24 435.950
SPROUT 02 Jul 01:46:22 01:49:41 22° 265° (W) 01:53:01 437.525
Cosmos 2491 02 Jul 01:51:22 01:59:54 55° 282° (WNW) 02:08:27 435.465 / 435.565
UKube-1 02 Jul 01:53:46 01:55:47 13° 267° (W) 01:57:50 .
SWISSCUBE 02 Jul 01:56:34 02:00:21 24° 67° (ENE) 02:04:11 437.505
NANOSAT C BR1 02 Jul 02:15:12 02:17:09 13° 295° (WNW) 02:19:07 145.865
BEESAT 02 Jul 02:20:41 02:25:04 37° 71° (ENE) 02:29:28 436.000
Gurwin Techsat 1B 02 Jul 02:20:49 02:24:21 18° 93° (E) 02:27:52 435.225
QB50P1 02 Jul 02:21:18 02:22:21 11° 296° (WNW) 02:23:25 145.935-145.965
ITUPSAT 1 02 Jul 02:24:15 02:28:43 40° 71° (ENE) 02:33:12 437.325
POPSAT HIP 1 02 Jul 02:25:50 02:25:56 10° 297° (WNW) 02:26:01 437.405
JAS-2 02 Jul 02:31:17 02:36:37 55° 288° (WNW) 02:41:39 435.910
BEESAT 3 02 Jul 02:37:26 02:41:12 47° 304° (WNW) 02:45:02 437.485
YUBILEINY 02 Jul 02:43:02 02:46:52 14° 284° (WNW) 02:50:43 435.215
TISAT 1 02 Jul 02:53:16 02:55:45 15° 267° (W) 02:58:15 437.305
PCSat 02 Jul 03:02:24 03:07:05 30° 307° (NW) 03:11:50 145.827
O/OREOS (USA 219) 02 Jul 03:08:34 03:12:51 44° 294° (WNW) 03:17:10 437.305
Oscar 19 02 Jul 03:11:01 03:16:05 62° 286° (WNW) 03:21:08 437.125/150
Cosmos 2504 02 Jul 03:17:09 03:23:59 26° 278° (W) 03:30:34 435.465 / 435.565
BEESAT 2 02 Jul 03:23:33 03:27:01 28° 308° (NW) 03:30:30 435.950
AO-7 02 Jul 03:30:29 03:35:01 15° 91° (E) 03:39:29 29.400- 29.500
SWISSCUBE 02 Jul 03:33:39 03:37:57 33° 263° (W) 03:42:18 437.505
ITAMSAT 1 02 Jul 03:42:16 03:47:06 37° 98° (E) 03:51:53 435.822/435.867
KKS-1 02 Jul 03:43:48 03:47:41 31° 70° (ENE) 03:51:35 437.445
Gurwin Techsat 1B 02 Jul 03:59:24 04:04:34 52° 288° (WNW) 04:09:42 435.225
BEESAT 02 Jul 03:59:25 04:02:57 20° 266° (W) 04:06:30 436.000
AIST 1 02 Jul 04:00:38 04:04:31 34° 78° (ENE) 04:08:24
MOZHAYETS 4 02 Jul 04:02:08 04:06:31 45° 73° (ENE) 04:10:57
ITUPSAT 1 02 Jul 04:03:16 04:06:40 19° 266° (W) 04:10:06 437.325
STARS 02 Jul 04:05:25 04:09:02 26° 69° (ENE) 04:12:40 437.465
PHONESAT 2.4 02 Jul 04:30:50 04:32:34 14° 146° (SE) 04:34:18 2401.200-2431.200
AIST 2 02 Jul 04:37:52 04:41:58 89° 108° (ESE) 04:46:07 435.215
GONETS M04 02 Jul 04:45:28 04:52:33 27° 70° (ENE) 04:59:36
HORYU 2 02 Jul 05:03:34 05:05:17 12° 92° (E) 05:07:01 437.375
AO-85 02 Jul 05:13:26 05:16:40 19° 46° (NE) 05:19:42 145.980
AO-7 02 Jul 05:20:19 05:28:45 87° 107° (ESE) 05:37:07 29.400- 29.500
KKS-1 02 Jul 05:20:54 05:24:15 21° 265° (W) 05:27:38 437.445
ITAMSAT 1 02 Jul 05:22:08 05:26:20 25° 294° (WNW) 05:30:32 435.822/435.867
AIST 1 02 Jul 05:39:10 05:41:48 16° 273° (W) 05:44:25
CUBESAT XI-V 02 Jul 05:40:22 05:44:59 58° 74° (ENE) 05:49:36 437.345
MOZHAYETS 4 02 Jul 05:41:05 05:43:54 16° 268° (W) 05:46:43
STARS 02 Jul 05:41:46 05:45:19 24° 264° (W) 05:48:53 437.465
Cosmos 2499 02 Jul 05:47:18 05:55:31 44° 75° (ENE) 06:03:10 435.465 / 435.565
PHONESAT 2.4 02 Jul 06:05:45 06:08:48 74° 160° (SSE) 06:11:52 2401.200-2431.200
CUSAT 1 02 Jul 06:07:00 06:10:39 14° 87° (E) 06:14:01 437.405
AIST 2 02 Jul 06:20:22 06:21:03 10° 318° (NW) 06:21:44 435.215
Cubesat XI-IV 02 Jul 06:20:54 06:23:01 12° 90° (E) 06:25:08 437.490
HORYU 2 02 Jul 06:37:44 06:42:09 56° 286° (WNW) 06:46:33 437.375
GONETS M04 02 Jul 06:41:20 06:49:53 62° 269° (W) 06:58:28
NOAA 18 02 Jul 06:46:23 06:50:54 25° 96° (E) 06:55:24 137.9125
CUTE-I 02 Jul 06:51:57 06:56:26 26° 95° (E) 07:00:53 437.470
AO-85 02 Jul 06:53:13 06:57:22 42° 246° (WSW) 07:01:12 145.980
BRITE-PL 02 Jul 06:58:32 07:02:27 39° 99° (E) 07:06:29 437.365/2234.400
STRAND 1 02 Jul 07:01:53 07:06:18 30° 68° (ENE) 07:10:46 437.568
DANDE 02 Jul 07:04:10 07:10:32 25° 87° (E) 07:16:26 436.750
NOAA 15 02 Jul 07:06:17 07:11:23 50° 100° (E) 07:16:27 137.62
GOMX 1 02 Jul 07:11:26 07:14:58 24° 96° (E) 07:18:39 467.674
AO-7 02 Jul 07:14:46 07:20:28 21° 306° (NW) 07:26:09 29.400- 29.500
LilacSat-2 02 Jul 07:17:13 07:20:58 44° 99° (E) 07:24:41 437.200
CUBESAT XI-V 02 Jul 07:20:42 07:22:41 12° 269° (W) 07:24:40 437.345
Cosmos 2499 02 Jul 07:40:45 07:48:23 37° 275° (W) 07:55:35 435.465 / 435.565
PHONESAT 2.4 02 Jul 07:42:32 07:45:31 47° 356° (N) 07:48:30 2401.200-2431.200
CUSAT 1 02 Jul 07:44:33 07:52:15 90° 290° (WNW) 07:58:35 437.405
ISS 02 Jul 07:46:39 07:49:54 89° 91° (E) 07:53:10 145.825
DOVE 4 02 Jul 07:50:38 07:54:37 30° 97° (E) 07:58:45 437.250
Cubesat XI-IV 02 Jul 07:58:12 08:03:35 74° 286° (WNW) 08:08:56 437.490
HO-68 02 Jul 08:10:25 08:15:25 20° 93° (E) 08:20:22 435.675
CINEMA 3 02 Jul 08:16:53 08:20:04 18° 94° (E) 08:23:18 145.822/145.860
CUTE 1.7 + AOD 2 02 Jul 08:20:48 08:23:08 14° 92° (E) 08:25:25 437.475
NOAA 18 02 Jul 08:26:29 08:31:38 40° 291° (WNW) 08:36:45 137.9125
PRISM 02 Jul 08:29:45 08:33:24 31° 71° (ENE) 08:37:03 437.425
CUTE-I 02 Jul 08:31:37 08:36:30 36° 291° (WNW) 08:41:20 437.470
BRITE-PL 02 Jul 08:38:18 08:40:39 15° 293° (WNW) 08:43:02 437.365/2234.400
STRAND 1 02 Jul 08:40:57 08:45:23 29° 263° (W) 08:49:53 437.568
DANDE 02 Jul 08:44:30 08:52:54 68° 281° (W) 09:00:25 436.750
NOAA 15 02 Jul 08:47:08 08:50:45 19° 296° (WNW) 08:54:21 137.62
GOMX 1 02 Jul 08:49:28 08:53:00 26° 289° (WNW) 08:56:41 467.674
LilacSat-2 02 Jul 08:53:17 08:54:50 12° 294° (WNW) 08:56:23 437.200
PHONESAT 2.4 02 Jul 09:19:17 09:22:20 66° 13° (NNE) 09:25:23 2401.200-2431.200
COMPASS 1 02 Jul 09:21:19 09:25:10 35° 97° (E) 09:28:58 437.405
CUBEBUG 2 02 Jul 09:22:06 09:26:05 27° 96° (E) 09:30:05 437.445
ISS 02 Jul 09:24:47 09:26:44 15° 337° (NNW) 09:28:42 145.825
DOVE 4 02 Jul 09:28:41 09:32:10 23° 290° (WNW) 09:35:46 437.250
CUSAT 1 02 Jul 09:30:51 09:34:39 15° 290° (WNW) 09:38:09 437.405
ZACube-1 02 Jul 09:31:10 09:33:40 14° 92° (E) 09:36:10 437.345
AUBIESAT-1 02 Jul 09:31:53 09:33:03 11° 98° (E) 09:34:14 437.475
Oscar 11 02 Jul 09:32:50 09:35:17 15° 92° (E) 09:37:43 145.826/435.025
RS-15 02 Jul 09:34:38 09:38:58 13° 95° (E) 09:43:23 29.354- 29.394
CANX-2 02 Jul 09:35:48 09:40:01 62° 285° (WNW) 09:44:13 2200.000
ANTELSAT 02 Jul 09:40:11 09:41:58 12° 64° (ENE) 09:43:44 437.575/2403.000
FUNcube-1 02 Jul 09:45:40 09:49:00 20° 94° (E) 09:52:20 145.935
SEEDS 02 Jul 09:51:09 09:55:21 67° 285° (WNW) 09:59:31 437.485
CINEMA 3 02 Jul 09:52:55 09:57:18 43° 287° (WNW) 10:01:52 145.822/145.860
CUTE 1.7 + AOD 2 02 Jul 09:55:06 09:59:09 42° 287° (WNW) 10:03:09 437.475
HO-68 02 Jul 09:56:29 10:03:39 70° 289° (WNW) 10:10:46 435.675
DELFI C3 02 Jul 09:57:23 09:58:02 10° 91° (E) 09:58:40 145.870
UWE-3 02 Jul 10:00:11 10:04:40 47° 99° (E) 10:09:10 435.000/436.395/437.385
PRISM 02 Jul 10:05:46 10:08:43 19° 265° (W) 10:11:41 437.425
PCSat 02 Jul 10:08:43 10:12:52 22° 50° (NE) 10:17:00 145.827
Cosmos 2491 02 Jul 10:11:01 10:13:54 12° 60° (ENE) 10:16:46 435.465 / 435.565
M-CUBED/EXP-1 PRIME 02 Jul 10:12:26 10:16:20 41° 104° (ESE) 10:20:28 437.505
AAUSAT CUBESAT 2 02 Jul 10:18:10 10:22:16 58° 285° (WNW) 10:26:19 437.432
